Temperature
22 22 22 21 21 21 20 20 20 20 19 19 19 19 18 18 18 18 18 18 18 18 18 18 18 18 18 18 18 18 17 17 17 17 17 18 18 18 18 18 18 18 18
22 21 21 21 21 21 20 20 20 20 19 19 19 18 18 18 18 18 18 18 18 18 18 18 18 18 18 17 17 17 17 17 17 17 17 17 17 18 18 18 18 18 18
21 21 21 21 21 20 20 20 20 20 19 19 18 18 18 18 18 18 17 17 18 18 18 18 17 17 17 17 17 17 17 17 17 17 17 17 17 17 18 18 17 17 18
21 21 21 20 20 20 20 20 20 19 19 19 18 18 18 18 18 17 17 17 17 17 17 17 17 17 17 17 17 17 17 17 17 17 17 17 17 17 17 17 17 17 17
21 21 21 21 20 20 20 20 19 19 19 19 18 18 18 18 18 17 17 17 17 17 17 17 17 17 17 17 17 17 17 17 17 17 17 17 17 17 17 17 17 17 17
21 21 21 20 20 20 20 20 19 19 19 18 18 18 18 18 18 17 17 17 17 17 17 17 17 17 17 17 17 17 17 17 17 17 17 17 17 17 17 17 17 17 17
21 21 20 20 20 20 20 20 19 19 18 18 18 18 18 18 18 17 17 17 17 17 17 17 17 17 17 17 17 17 17 17 17 17 17 17 17 17 17 17 16 16 16
21 21 21 21 20 20 20 20 19 19 18 18 18 18 18 17 17 17 17 17 17 17 17 17 17 17 17 17 16 16 16 16 16 16 16 16 16 16 16 16 16 16 16
21 21 21 20 20 20 20 19 19 19 18 18 18 17 17 17 17 17 17 17 17 17 17 17 17 17 17 17 16 16 16 16 16 16 16 16 16 16 16 16 16 16 15
21 21 20 20 20 20 20 19 19 19 19 18 18 17 17 17 17 17 17 17 16 16 16 16 16 16 16 16 16 16 16 16 16 16 16 16 16 16 16 16 16 16 16
21 21 21 20 20 20 19 19 19 19 18 18 18 17 17 17 17 16 16 16 16 16 16 16 16 16 16 16 16 16 16 16 16 16 16 16 16 16 16 15 15 15 15
21 21 21 20 20 20 19 19 19 18 18 18 18 17 17 17 16 16 16 16 16 16 16 16 16 16 16 16 16 16 15 15 15 15 15 15 15 15 15 15 15 15 15
21 21 21 20 20 20 19 19 19 19 18 18 18 17 17 17 16 16 16 16 16 15 15 16 16 16 15 15 15 15 15 15 15 15 15 15 15 15 15 15 15 15 15
21 21 20 20 20 19 19 19 19 18 18 18 18 17 17 17 16 16 16 16 15 15 15 15 15 15 15 15 15 15 15 15 15 15 15 15 15 15 15 15 15 15 15
21 21 20 20 19 19 19 18 18 18 18 18 17 17 17 16 16 16 16 15 15 15 15 15 15 15 15 15 15 15 15 15 15 15 15 15 14 14 14 14 14 14 14
21 20 20 20 19 19 18 18 18 18 17 17 17 17 16 16 16 16 16 15 15 15 15 15 15 15 15 15 15 15 15 14 14 14 14 14 14 14 14 14 14 14 14
20 20 20 20 19 19 18 18 17 17 17 17 17 16 16 16 16 16 15 15 15 15 15 15 15 15 15 15 14 14 14 14 14 14 14 14 14 14 14 14 14 14 14
20 20 20 19 19 18 18 18 17 17 17 16 16 16 16 16 15 15 15 15 15 15 15 15 15 14 14 14 14 14 14 14 14 14 14 14 14 14 14 14 14 13 13
20 20 19 19 19 18 18 17 17 17 16 16 16 16 16 15 15 15 15 15 15 15 15 15 14 14 14 14 14 14 14 14 14 14 14 14 14 14 13 13 13 13 13
20 20 19 19 18 18 17 17 17 16 16 16 16 15 15 15 15 15 15 15 14 15 14 14 14 14 14 14 14 14 14 14 14 14 14 14 14 14 13 13 13 13 13
20 19 19 18 18 17 17 17 16 16 16 16 15 15 15 15 15 15 14 14 14 14 14 14 14 14 14 14 14 13 13 13 13 13 13 13 13 13 13 13 13 13 13
19 19 18 18 17 17 17 16 16 16 15 15 15 15 15 15 15 14 14 14 14 14 14 14 14 14 14 14 14 13 13 13 13 13 13 13 13 13 13 13 13 13 12
19 18 18 17 17 17 16 16 16 15 15 15 15 15 15 14 14 14 14 14 14 14 14 13 13 14 14 13 13 13 13 13 13 13 13 13 13 13 13 13 12 12 12
18 17 17 17 16 16 16 16 15 15 15 15 14 14 14 14 14 14 14 14 14 14 13 13 13 13 13 13 13 13 13 13 13 12 12 12 12 12 12 12 12 12 12
17 17 17 16 16 15 15 15 15 14 14 14 14 14 14 14 14 14 14 14 14 14 13 13 13 13 13 13 13 13 13 13 13 12 12 12 12 12 12 12 12 12 12
17 16 16 16 15 15 15 14 14 14 14 14 14 14 14 14 14 13 13 13 13 13 13 13 13 13 13 13 13 13 13 13 12 12 12 12 12 11 12 12 12 12 12
Wind_Speed
9 9 10 10 9 8 8 7 6 5 4 3 2 2 1 1 1 2 3 3 3 3 2 1 1 1 1 1 2 1 1 0 1 1 2 3 2 1 1 1 2 3 4
7 8 8 8 9 9 8 7 6 6 5 4 3 2 2 1 1 1 1 3 3 2 2 2 2 2 2 1 1 2 1 0 1 1 1 2 3 3 1 1 1 1 2
11 9 8 7 8 8 8 8 6 6 5 4 3 2 2 1 1 0 1 2 2 2 1 2 2 1 2 2 2 3 3 2 2 2 2 2 2 2 3 1 0 0 1
10 9 8 8 8 8 7 6 6 5 5 5 4 4 3 2 3 2 2 1 1 2 2 2 2 2 2 2 2 2 2 3 2 2 1 2 3 2 2 3 2 1 1
10 10 9 9 8 8 7 6 5 4 4 4 5 4 3 3 2 1 1 1 1 1 2 2 2 2 2 2 2 1 2 3 3 2 1 1 1 2 2 2 2 2 1
9 9 8 7 6 7 6 6 6 4 4 4 4 4 4 3 2 1 2 1 1 1 1 2 2 2 1 2 2 2 2 2 2 2 2 2 2 2 2 3 2 2 2
9 9 8 8 7 7 7 7 6 5 4 4 4 4 4 4 4 3 3 3 2 1 1 1 1 1 2 2 2 2 2 2 1 2 2 2 2 2 2 2 2 1 1
9 10 10 9 8 8 8 7 7 6 5 4 3 3 3 3 2 3 3 3 3 3 2 2 2 2 1 2 2 2 2 1 2 2 1 1 1 1 2 3 2 1 1
9 9 8 8 8 8 8 8 8 6 6 5 3 2 2 2 2 2 2 2 2 3 2 2 2 2 1 1 2 1 1 1 1 1 1 1 1 1 1 2 3 3 2
7 7 8 7 7 7 7 8 8 7 6 5 4 3 2 2 2 2 2 3 3 2 2 3 3 2 2 2 2 1 1 1 1 1 1 1 1 0 0 1 1 2 3
9 9 8 7 7 6 6 7 7 6 5 5 4 3 3 3 2 2 2 2 1 2 2 2 2 2 2 2 2 2 2 2 1 1 1 1 1 0 0 1 1 1 2
7 7 8 8 8 8 7 6 6 6 6 6 4 4 3 2 2 2 2 2 2 2 2 2 2 2 2 2 2 2 2 2 2 2 1 2 1 0 1 1 1 1 2
7 6 5 6 7 7 7 7 6 6 6 5 5 4 3 3 3 3 3 2 2 2 2 2 2 2 2 2 2 2 2 3 3 3 3 2 2 2 1 1 1 2 1
8 7 6 5 6 6 7 7 6 6 5 5 5 5 5 5 5 3 3 2 2 2 2 2 2 2 3 3 3 3 3 3 3 3 4 3 4 4 4 2 2 2 2
6 6 6 6 6 5 5 5 6 6 6 5 5 5 4 4 3 3 3 2 2 3 3 2 2 2 3 3 3 3 3 3 4 4 4 4 5 5 5 4 4 4 3
7 7 6 6 5 5 5 4 4 4 5 5 5 4 3 3 4 3 3 2 3 3 2 3 3 3 3 3 3 4 4 4 4 4 4 4 4 4 5 5 5 6 5
6 6 6 6 6 6 6 5 4 4 5 5 5 4 4 4 4 4 3 3 3 3 3 3 3 3 4 4 4 4 4 4 4 4 4 4 3 3 3 4 4 5 6
7 7 6 5 4 5 5 5 4 4 4 4 4 4 4 4 4 4 4 4 3 3 4 4 4 4 4 4 4 4 3 3 4 4 4 4 4 4 4 4 3 3 4
8 7 7 6 4 4 4 4 4 4 4 4 4 5 5 4 4 5 5 4 4 4 3 3 4 4 5 4 4 4 2 3 4 4 4 4 5 6 5 4 4 3 4
5 6 5 5 5 4 4 5 4 3 4 4 5 5 5 5 5 5 5 3 3 4 3 3 4 4 4 5 5 4 3 3 3 3 3 5 5 6 6 6 6 5 5
5 6 6 5 5 5 5 5 4 4 5 4 4 4 4 5 4 3 3 3 3 2 2 3 3 3 4 5 5 5 3 4 3 3 3 4 5 6 6 6 6 8 6
5 5 6 5 4 5 5 5 5 5 4 3 3 3 3 4 3 2 2 2 3 3 2 2 3 3 3 4 5 5 5 4 4 4 4 4 5 6 6 5 6 7 5
6 5 6 5 5 5 6 5 5 4 3 2 2 2 2 2 2 3 2 2 2 3 3 3 3 3 3 3 3 3 3 3 3 3 3 4 4 5 4 5 6 5 4
5 4 5 4 4 4 5 5 5 3 3 3 2 2 2 2 1 1 2 3 3 3 3 3 3 3 3 3 2 1 2 2 1 2 3 3 3 3 3 3 2 3 4
5 5 5 5 4 4 4 5 5 4 3 3 3 2 3 3 2 2 3 4 4 5 5 4 4 4 4 6 6 4 3 3 3 2 1 0 0 1 1 1 1 2 2
5 5 5 4 3 3 3 4 4 4 4 3 3 2 2 2 2 2 2 3 4 5 6 7 7 6 7 7 6 5 4 4 4 3 2 2 2 3 3 2 2 2 3
Wind_Direction
172 164 163 164 157 155 154 156 152 159 146 130 131 135 156 178 186 188 182 175 183 186 159 139 159 151 143 165 152 138 90 21 54 53 0 346 331 308 247 220 211 210 206
163 167 165 163 160 162 163 162 161 163 162 161 158 157 156 182 193 207 195 189 186 192 172 162 167 158 146 113 117 122 121 248 151 130 80 355 345 338 312 279 198 200 199
166 169 166 164 160 166 172 171 166 165 169 161 133 109 75 40 33 308 231 211 193 182 178 158 160 159 151 170 183 165 157 205 246 181 150 157 242 301 315 296 258 214 230
165 162 160 160 165 169 167 165 165 163 163 157 153 153 163 187 214 215 215 230 201 182 172 155 153 159 157 179 215 180 179 179 228 264 220 193 182 193 294 318 330 324 261
161 162 166 169 166 161 158 158 153 160 163 160 164 164 176 195 201 194 185 200 216 181 165 153 145 146 156 178 197 189 192 191 202 214 224 226 224 192 195 270 302 323 309
159 161 165 159 157 155 156 157 154 160 161 162 162 167 172 172 157 168 180 193 199 203 179 147 149 163 167 188 197 191 187 201 200 210 200 189 195 204 195 225 250 273 296
160 156 160 162 164 163 165 159 155 165 170 165 170 175 176 170 172 181 186 181 183 194 212 183 176 187 199 196 184 178 200 197 188 206 221 216 218 198 185 185 220 248 281
161 166 171 172 172 174 172 164 161 174 180 179 184 185 178 176 187 193 179 184 197 206 206 191 189 202 197 194 177 191 215 200 208 221 210 216 241 198 187 184 176 207 297
164 170 173 171 175 176 178 176 172 174 176 179 174 169 170 178 197 193 175 183 200 201 192 191 196 208 203 187 170 190 220 190 207 222 210 213 233 204 190 173 174 173 199
161 166 173 175 176 175 175 174 173 179 181 178 182 182 181 196 212 184 193 204 212 201 182 192 199 203 200 191 177 192 204 162 213 200 184 228 248 236 162 165 160 166 174
164 168 170 167 165 165 169 175 175 174 175 176 180 179 184 202 202 196 210 209 212 200 203 195 189 196 204 203 190 205 191 194 236 247 202 240 235 175 212 148 140 141 145
154 158 163 161 161 164 167 175 180 178 184 181 175 182 186 190 202 217 222 201 200 205 210 206 193 208 213 209 194 209 216 213 230 248 222 234 230 208 231 169 171 180 170
144 140 144 154 165 169 169 176 179 178 177 169 171 182 183 189 217 223 224 214 199 202 210 198 210 214 216 218 222 218 231 234 229 227 216 222 192 220 220 190 193 198 175
152 148 150 157 167 174 174 175 181 176 169 164 171 187 195 197 213 219 217 214 210 215 223 222 228 215 213 220 216 213 232 242 244 234 223 217 204 209 205 201 198 184 166
154 157 160 165 168 167 168 174 178 175 168 165 177 196 205 204 203 205 213 213 222 238 231 216 224 224 220 228 214 213 224 228 243 249 241 231 218 202 198 198 192 178 175
161 160 167 164 165 164 164 164 168 173 166 171 188 194 195 204 207 206 209 213 231 235 229 224 221 230 237 238 218 212 224 224 234 246 249 244 222 214 209 208 199 186 184
170 171 172 170 170 166 161 163 168 164 165 178 186 187 190 205 213 210 210 224 231 227 233 238 221 226 239 237 236 227 216 226 233 235 239 243 231 210 212 222 219 215 212
176 181 177 169 168 168 163 161 151 151 163 179 190 190 189 209 223 217 221 227 227 222 229 238 234 235 246 240 242 240 229 234 242 235 227 226 233 221 203 203 213 220 226
179 177 177 169 159 165 165 146 145 153 162 182 196 200 198 210 223 225 227 226 222 231 231 231 229 237 250 236 227 218 221 244 255 252 239 229 226 223 202 188 201 223 247
166 164 162 150 154 162 156 146 162 169 191 204 207 207 204 211 220 228 225 220 220 230 235 246 242 237 239 233 225 213 209 235 255 265 259 247 233 223 202 193 194 213 233
161 154 151 161 176 173 158 159 174 199 214 213 211 213 215 216 215 217 212 203 202 213 247 264 266 248 233 231 227 218 209 219 235 251 267 262 234 220 212 203 206 217 214
150 155 158 173 185 179 170 179 203 215 210 204 209 222 224 224 218 199 214 197 186 195 242 268 284 274 251 235 231 225 221 216 214 236 248 253 247 233 223 215 221 215 204
166 167 168 172 188 187 178 194 222 210 197 202 220 233 228 229 210 195 202 208 204 204 222 220 249 277 275 259 239 219 224 222 221 242 253 260 257 245 236 234 222 205 192
170 167 162 173 201 205 195 209 216 201 189 204 220 213 201 225 225 210 204 212 212 208 215 218 231 252 267 265 263 246 232 223 240 273 279 275 262 250 243 242 231 209 198
178 174 176 187 205 209 209 209 208 191 191 206 219 213 204 204 220 230 228 226 228 212 208 219 217 222 246 248 232 213 212 209 218 224 263 321 294 274 270 248 233 212 199
182 178 181 187 203 210 228 230 212 196 195 209 217 216 213 212 212 228 273 269 245 245 230 221 220 231 233 235 225 222 221 216 193 166 208 227 229 238 235 225 224 215 214
Height
1511 1512 1514 1515 1516 1518 1519 1520 1521 1521 1522 1523 1524 1524 1524 1525 1525 1526 1526 1526 1526 1527 1527 1527 1527 1528 1528 1528 1528 1528 1528 1528 1528 1528 1527 1527 1527 1527 1527 1527 1528 1528 1528
1511 1512 1513 1513 1514 1516 1517 1518 1519 1521 1521 1522 1523 1523 1524 1524 1524 1525 1525 1525 1525 1525 1525 1526 1526 1527 1527 1527 1527 1527 1527 1527 1527 1527 1526 1526 1527 1526 1527 1527 1527 1526 1527
1507 1509 1512 1513 1514 1515 1516 1517 1519 1520 1521 1521 1522 1522 1523 1523 1523 1523 1523 1524 1524 1524 1524 1525 1525 1526 1526 1526 1525 1526 1526 1526 1526 1526 1526 1526 1525 1525 1525 1525 1525 1525 1525
1506 1507 1510 1511 1512 1513 1515 1517 1518 1519 1519 1520 1520 1520 1521 1521 1521 1522 1522 1523 1523 1523 1523 1524 1524 1524 1524 1524 1524 1524 1524 1524 1524 1524 1525 1525 1525 1525 1524 1524 1524 1524 1524
1505 1506 1508 1509 1511 1512 1514 1515 1516 1518 1518 1519 1519 1519 1519 1519 1520 1520 1521 1521 1521 1522 1522 1522 1522 1522 1522 1522 1522 1522 1522 1522 1522 1522 1522 1523 1523 1523 1522 1521 1522 1522 1522
1503 1505 1507 1509 1510 1511 1512 1513 1514 1516 1517 1517 1518 1518 1518 1518 1518 1519 1519 1519 1520 1520 1520 1520 1520 1520 1520 1520 1520 1520 1520 1520 1520 1520 1520 1520 1520 1520 1520 1520 1519 1520 1520
1501 1503 1505 1506 1508 1509 1510 1511 1513 1513 1514 1515 1516 1516 1516 1516 1517 1517 1517 1518 1518 1518 1518 1519 1519 1518 1519 1519 1518 1518 1518 1518 1518 1518 1518 1518 1518 1518 1518 1518 1517 1518 1518
1499 1501 1502 1504 1506 1508 1509 1510 1511 1512 1513 1513 1514 1514 1515 1515 1516 1516 1516 1516 1516 1516 1517 1517 1517 1517 1517 1517 1516 1516 1516 1516 1515 1515 1515 1515 1515 1515 1515 1515 1515 1515 1515
1497 1499 1502 1503 1505 1506 1508 1508 1509 1511 1511 1511 1512 1513 1513 1513 1514 1514 1515 1515 1515 1514 1515 1515 1515 1515 1515 1514 1514 1514 1513 1513 1513 1513 1513 1513 1513 1513 1513 1513 1513 1513 1512
1497 1499 1501 1502 1504 1506 1507 1508 1509 1510 1510 1510 1510 1510 1510 1511 1512 1512 1512 1512 1512 1512 1512 1511 1512 1512 1512 1512 1512 1511 1511 1511 1510 1510 1510 1510 1510 1510 1510 1510 1510 1511 1510
1495 1497 1499 1501 1502 1504 1505 1506 1507 1508 1508 1509 1509 1509 1509 1510 1510 1510 1509 1510 1510 1509 1509 1509 1509 1509 1509 1509 1509 1509 1509 1508 1508 1508 1508 1507 1507 1507 1508 1508 1508 1508 1508
1494 1495 1497 1499 1500 1502 1503 1504 1505 1505 1506 1507 1507 1507 1508 1508 1507 1507 1507 1507 1507 1507 1507 1506 1506 1506 1507 1507 1507 1506 1506 1506 1506 1505 1505 1505 1505 1505 1505 1505 1505 1506 1506
1492 1494 1496 1497 1498 1499 1500 1502 1502 1503 1504 1505 1505 1506 1506 1506 1505 1505 1504 1505 1504 1504 1503 1503 1503 1503 1504 1504 1504 1504 1504 1503 1503 1503 1502 1502 1502 1502 1502 1503 1503 1503 1503
1490 1492 1493 1495 1497 1498 1498 1498 1499 1500 1501 1502 1503 1503 1503 1503 1503 1503 1502 1502 1501 1501 1501 1500 1500 1500 1501 1501 1501 1501 1501 1500 1500 1500 1500 1499 1499 1499 1499 1500 1500 1500 1500
1489 1490 1492 1494 1495 1496 1496 1496 1497 1498 1499 1500 1500 1500 1501 1501 1501 1500 1500 1499 1499 1499 1499 1498 1498 1498 1498 1498 1498 1498 1498 1497 1497 1497 1496 1496 1496 1496 1496 1497 1497 1497 1497
1486 1488 1490 1491 1492 1493 1494 1494 1495 1495 1496 1497 1497 1498 1498 1498 1498 1498 1498 1497 1497 1496 1496 1496 1496 1495 1495 1495 1495 1495 1494 1494 1494 1493 1493 1493 1493 1493 1493 1494 1494 1494 1494
1485 1486 1487 1488 1489 1490 1491 1492 1493 1493 1494 1495 1495 1495 1495 1495 1496 1495 1495 1495 1495 1494 1494 1493 1493 1492 1492 1492 1492 1491 1491 1491 1490 1490 1490 1490 1490 1490 1490 1490 1491 1491 1492
1483 1484 1485 1486 1487 1488 1489 1490 1490 1490 1491 1492 1492 1492 1493 1493 1493 1493 1492 1492 1492 1492 1491 1491 1490 1489 1489 1489 1489 1489 1488 1488 1487 1487 1486 1486 1486 1486 1487 1487 1487 1488 1488
1481 1482 1483 1484 1484 1485 1486 1487 1487 1488 1488 1488 1489 1489 1490 1490 1490 1489 1489 1489 1489 1489 1488 1488 1487 1486 1486 1485 1485 1485 1485 1484 1484 1483 1483 1483 1483 1483 1484 1484 1484 1484 1485
1478 1479 1480 1481 1482 1483 1484 1484 1484 1484 1484 1485 1486 1486 1487 1487 1486 1486 1486 1486 1486 1485 1485 1484 1483 1483 1482 1482 1482 1482 1481 1480 1480 1480 1479 1479 1479 1480 1480 1480 1480 1481 1482
1476 1477 1478 1478 1479 1481 1481 1481 1481 1481 1482 1482 1482 1483 1483 1483 1483 1483 1483 1482 1482 1481 1481 1480 1480 1479 1478 1478 1478 1478 1477 1476 1476 1476 1475 1475 1476 1476 1477 1477 1477 1477 1479
1473 1474 1474 1475 1477 1478 1478 1478 1478 1478 1479 1479 1479 1479 1480 1480 1480 1480 1479 1479 1478 1478 1477 1477 1476 1476 1475 1475 1475 1474 1474 1473 1473 1472 1472 1472 1472 1473 1473 1473 1473 1474 1475
1469 1470 1471 1472 1473 1474 1475 1474 1474 1475 1475 1475 1475 1476 1476 1476 1477 1476 1476 1475 1475 1474 1474 1473 1473 1472 1472 1472 1472 1471 1471 1470 1470 1469 1469 1469 1469 1469 1469 1470 1470 1471 1471
1466 1467 1468 1468 1469 1469 1470 1470 1470 1472 1472 1472 1472 1472 1473 1473 1473 1473 1472 1471 1470 1470 1470 1469 1468 1468 1469 1469 1468 1468 1467 1467 1467 1466 1466 1466 1466 1466 1466 1466 1467 1467 1468
1463 1464 1465 1465 1465 1466 1466 1467 1467 1468 1468 1468 1469 1469 1469 1469 1469 1469 1469 1468 1467 1467 1467 1466 1466 1466 1465 1465 1466 1465 1464 1464 1463 1463 1463 1462 1463 1462 1462 1463 1463 1464 1465
1460 1460 1461 1461 1461 1462 1462 1463 1464 1464 1465 1465 1465 1465 1466 1466 1466 1466 1465 1465 1465 1464 1464 1463 1464 1463 1463 1463 1463 1462 1462 1461 1461 1460 1459 1459 1459 1459 1459 1459 1460 1461 1461